Wind_Speed
8 8 7 6 6 7 6 3 2 4 6 6 6 7 8 8 8 7 6 6 7 8 7 7 7 8 9 10 10 10 10 10 9 8 7 5 6 6 6 6 6 7 8 9 9 9 10 11 13 15 16 17 18 19 20 21 21 21 21 21 20 19 18 17 17 17 17 17 17 17 17 18 19 21
8 9 9 8 8 8 7 5 3 1 3 5 4 5 6 7 8 9 8 7 8 10 10 9 9 8 9 10 11 11 11 11 10 9 9 8 8 7 7 7 7 7 8 9 9 10 11 13 14 16 17 18 19 20 21 21 22 22 23 23 22 21 19 17 17 17 18 18 17 17 17 17 17 19
9 9 9 9 8 9 9 7 5 3 1 2 3 3 4 6 7 9 9 9 9 10 12 12 11 10 10 11 11 11 11 12 11 11 10 10 9 8 8 8 7 7 8 9 10 11 12 13 15 16 17 18 20 21 21 22 23 24 25 25 24 22 19 18 18 18 18 18 18 17 17 17 17 18
11 10 10 10 10 10 10 9 7 5 3 3 3 3 4 5 7 8 9 10 11 12 13 13 13 13 12 12 12 12 12 12 12 11 11 11 10 9 8 8 8 8 8 9 10 11 12 13 15 16 17 19 20 21 22 23 25 27 27 27 25 22 19 18 18 18 18 18 17 17 17 17 17 17
11 12 11 11 12 13 12 11 10 8 6 5 6 5 5 5 6 8 9 10 10 12 13 13 13 13 12 12 12 12 12 12 13 12 12 12 12 11 9 9 9 9 9 10 10 11 12 13 14 15 17 19 21 21 22 25 27 28 28 26 23 20 18 17 18 19 19 18 17 17 17 16 16 16
11 13 13 12 13 15 15 14 13 12 10 8 7 8 7 6 6 7 8 9 10 11 12 12 13 12 11 11 11 11 11 12 12 13 12 12 12 12 11 10 10 10 11 11 10 11 12 13 13 15 17 19 20 22 24 26 28 28 27 24 21 19 17 17 18 19 19 18 18 18 18 17 16 16
12 13 14 14 14 15 16 17 16 15 14 12 10 10 10 8 8 8 9 9 10 11 12 13 13 13 12 11 11 11 12 12 12 13 13 13 12 12 12 11 10 11 12 12 11 11 12 13 14 15 17 18 20 22 24 26 28 27 25 22 19 18 17 18 18 19 19 19 19 19 19 19 18 17
12 13 15 15 16 17 17 18 18 18 17 15 13 12 12 12 11 10 10 10 11 12 13 14 15 15 14 13 12 12 13 13 13 13 13 14 13 13 13 12 11 11 12 13 13 12 13 13 14 16 17 18 20 22 24 26 26 25 23 21 19 18 18 17 18 18 19 19 19 19 20 20 20 19
12 13 14 15 17 18 19 19 19 20 20 19 17 16 15 14 14 14 13 12 13 13 14 15 16 16 16 16 15 14 14 14 14 13 13 14 14 14 14 14 13 12 12 13 14 14 14 14 15 16 17 19 20 22 24 25 24 24 22 20 19 18 17 17 17 18 19 20 19 19 20 21 21 21
13 14 14 14 16 19 20 20 20 21 21 22 21 19 18 17 17 18 17 16 16 15 15 16 17 18 18 18 17 17 16 16 16 15 14 14 14 15 15 15 15 14 13 13 15 15 15 15 16 17 17 19 21 23 23 23 22 22 21 20 18 18 17 17 17 18 19 19 19 19 20 21 22 22
15 16 16 16 17 18 19 21 21 22 23 23 24 23 22 21 20 20 20 20 20 19 18 18 19 19 20 20 20 19 19 18 17 17 18 16 14 15 16 16 17 16 15 14 15 16 16 16 16 17 17 18 20 22 22 22 21 21 20 20 18 17 16 16 16 17 18 19 19 19 19 21 22 22
18 18 18 19 19 19 19 20 22 23 24 25 26 26 26 26 25 24 24 24 23 22 22 21 21 22 22 22 22 22 21 20 19 20 20 19 17 17 17 17 18 18 17 16 16 17 17 17 17 17 17 19 20 21 21 20 20 20 20 20 18 17 16 16 16 16 17 17 18 18 19 20 22 22
20 20 20 20 21 21 21 21 22 23 25 26 27 28 28 29 29 28 28 28 27 26 25 24 24 24 25 24 23 24 24 23 22 22 23 21 19 20 20 19 19 20 20 18 17 17 18 17 17 17 17 18 20 20 20 19 19 19 20 20 18 17 16 16 16 15 16 17 17 18 18 19 21 22
21 21 21 21 22 23 23 23 24 24 25 27 28 29 30 31 31 31 32 31 30 30 29 28 27 27 27 26 25 25 26 26 26 25 25 24 22 22 22 21 20 20 21 20 18 17 18 18 17 17 17 18 19 20 20 19 18 19 20 20 18 17 16 16 16 15 15 16 17 17 17 18 19 21
22 22 22 22 23 24 25 26 26 26 26 27 28 29 30 32 33 34 34 34 33 33 33 32 31 30 29 28 28 28 28 28 28 28 28 28 26 24 24 23 21 21 22 22 19 18 18 18 18 18 18 19 20 20 20 19 18 18 20 20 19 18 17 16 16 15 15 15 15 16 16 18 19 20
22 23 23 23 24 24 25 26 27 28 28 28 29 30 31 32 34 35 36 36 36 36 36 36 35 34 31 30 30 30 30 31 30 30 32 31 29 27 26 25 23 22 23 23 20 18 18 18 17 17 18 20 21 21 21 20 18 18 19 20 20 18 18 17 16 15 14 14 14 15 16 17 18 19
23 23 24 25 24 24 24 26 27 28 29 30 30 31 32 33 34 35 37 38 38 38 39 39 39 37 34 33 32 32 33 34 34 34 35 34 32 31 29 27 26 25 25 24 20 18 18 18 15 15 17 18 20 22 23 21 18 17 18 20 20 19 18 17 16 15 14 14 13 13 14 16 18 19
24 24 25 26 26 26 26 27 27 28 29 30 31 33 34 35 35 35 37 38 39 39 40 41 41 39 38 37 36 35 37 38 37 37 37 36 36 35 33 30 30 29 27 25 22 19 18 17 15 15 16 17 18 20 23 22 19 17 17 19 20 19 18 18 17 15 14 13 12 12 13 14 17 20
27 27 27 28 28 28 27 28 29 29 30 31 32 33 35 36 36 36 37 38 39 39 40 41 41 40 41 41 40 40 40 41 40 40 39 38 39 39 37 35 33 31 29 26 24 21 18 18 17 17 19 20 19 19 22 23 21 17 16 18 19 20 19 18 17 16 14 14 13 12 12 14 16 19
29 29 30 30 30 30 30 30 31 31 31 32 33 34 35 36 37 37 37 37 39 40 40 40 40 40 41 43 43 43 43 43 43 42 42 42 41 41 40 38 36 34 31 28 25 22 19 18 19 19 20 21 20 20 21 23 22 18 16 17 18 20 20 19 17 16 15 15 14 13 13 14 17 19
32 32 32 32 32 32 32 32 33 33 34 34 34 35 36 36 37 37 37 37 39 40 41 40 40 40 42 43 44 44 44 44 45 45 45 44 43 42 42 41 39 37 33 30 28 25 21 20 20 20 19 18 20 21 22 24 22 18 16 16 17 19 20 19 18 17 16 16 15 14 14 16 18 20
34 34 34 34 35 34 34 34 35 35 36 37 37 37 38 38 38 37 37 38 38 40 41 42 41 42 43 43 43 43 44 45 46 47 47 45 43 43 44 43 41 39 36 33 30 27 23 21 21 20 17 16 22 24 23 24 22 18 16 16 17 18 19 19 18 17 16 16 16 15 15 16 19 21
35 35 36 36 37 36 36 36 36 37 38 39 39 39 41 41 40 38 38 38 37 39 42 43 42 43 43 43 43 44 44 45 46 47 47 46 46 45 44 43 43 42 39 35 31 28 25 23 22 20 17 18 24 24 23 25 23 18 16 16 17 18 18 18 18 17 16 16 16 15 16 17 18 20
37 37 37 37 37 38 38 38 39 39 40 41 42 42 44 43 41 40 41 40 39 40 43 44 44 44 45 45 45 46 46 46 47 47 48 48 47 46 44 45 45 44 40 36 32 29 27 26 24 21 20 22 26 23 23 26 23 19 17 16 16 17 18 18 18 17 16 15 15 15 16 17 18 19
39 40 40 39 39 39 39 40 41 41 42 43 44 46 46 44 43 44 46 45 43 43 45 46 47 47 47 48 48 48 49 49 48 48 49 49 48 46 45 45 46 45 41 38 35 31 29 29 27 23 22 24 26 22 23 26 23 19 18 16 16 18 18 17 18 17 15 14 14 14 15 16 17 19
42 43 43 42 40 40 41 41 42 43 43 44 46 46 46 46 47 49 49 49 49 48 49 50 51 50 50 51 51 51 51 50 50 50 50 49 47 47 46 46 47 45 42 39 36 32 29 30 30 27 24 23 24 22 23 25 23 20 18 16 16 18 18 17 18 17 15 13 12 13 14 16 17 18
45 45 45 43 42 42 42 42 42 43 43 44 45 46 47 49 51 50 49 48 49 49 51 54 55 54 54 54 54 53 52 51 51 51 50 48 48 48 47 47 47 45 44 42 39 34 31 32 33 29 25 23 23 22 23 25 23 21 19 17 17 17 18 18 18 18 16 13 11 11 13 15 17 18
45 45 44 43 42 41 41 41 41 41 41 42 44 45 48 51 50 48 48 49 48 48 51 54 56 56 56 57 58 56 53 52 50 50 49 48 49 49 48 48 47 47 46 44 40 37 34 35 35 29 25 23 24 21 23 25 23 22 20 17 17 17 17 17 18 18 16 13 11 11 12 14 16 18
43 43 42 41 40 39 39 39 39 39 39 40 43 45 49 51 49 48 49 50 49 50 52 54 56 57 57 59 60 58 55 53 51 50 50 50 51 51 50 49 49 50 48 44 41 39 37 37 36 30 24 23 23 21 24 25 23 22 21 18 18 18 17 17 18 18 17 13 11 11 12 14 16 18
39 39 39 38 38 37 37 38 38 39 39 41 44 46 49 52 53 52 52 51 51 53 54 55 58 60 61 61 61 60 59 57 55 53 52 51 52 52 52 51 51 51 50 46 42 40 38 38 36 30 24 22 22 21 25 26 23 22 22 19 18 18 17 17 18 18 17 14 11 10 12 14 16 18
36 36 36 37 37 37 38 39 40 40 42 44 46 48 49 51 53 55 56 55 54 56 57 58 60 62 64 64 63 62 61 60 59 57 54 53 53 52 52 53 53 53 52 48 45 43 41 39 36 30 25 22 22 23 27 26 23 22 22 20 19 18 17 18 18 18 17 15 12 11 12 13 15 17
34 34 35 36 37 38 40 41 41 42 44 46 47 49 50 51 53 55 56 57 57 58 60 61 62 64 64 64 65 65 63 60 60 59 57 55 55 54 54 54 55 55 52 48 47 47 44 41 36 32 27 23 21 23 27 26 23 23 23 21 19 18 18 19 18 18 17 15 12 11 12 13 15 17
33 34 36 37 39 40 41 42 42 43 45 47 50 52 53 54 55 55 56 58 59 60 61 62 64 67 67 64 64 64 62 61 63 63 61 58 57 57 56 56 57 58 54 49 48 48 46 41 36 30 26 23 21 24 27 25 23 24 24 22 19 18 19 19 18 18 17 15 13 12 11 13 15 17
34 35 37 38 39 41 42 43 44 46 48 51 54 56 57 56 57 57 57 58 59 59 60 61 65 69 69 65 62 61 60 61 63 65 64 62 60 60 59 58 58 59 56 51 49 47 45 41 35 29 24 22 21 25 26 24 24 25 24 21 19 18 19 19 19 18 17 15 13 12 11 12 15 17
35 36 39 40 42 43 45 46 48 50 51 54 56 58 58 58 58 59 58 56 56 56 57 60 64 68 69 68 65 64 63 62 61 62 63 64 63 61 59 56 57 60 59 54 49 47 45 42 36 30 23 20 22 25 25 24 24 25 23 20 19 19 20 20 18 18 18 16 14 12 11 11 14 17
37 39 42 44 46 48 49 50 51 51 52 53 53 54 56 56 56 56 54 54 55 56 58 60 63 65 67 68 68 69 68 65 61 60 62 64 64 62 59 56 56 59 60 55 50 48 47 43 37 29 22 20 22 23 24 25 26 25 23 21 19 19 19 20 18 18 18 17 15 13 11 12 14 17
38 40 43 45 46 48 50 50 50 50 50 50 50 50 53 54 54 54 54 55 58 61 62 62 62 65 67 68 66 66 67 67 66 63 62 63 64 62 60 57 56 58 59 55 52 51 47 40 34 26 22 21 22 21 24 28 29 26 23 21 19 19 19 19 18 17 18 18 16 13 13 13 14 17
39 41 42 44 45 46 47 47 48 48 49 49 50 51 53 54 56 56 55 56 58 61 62 63 63 65 65 63 61 62 64 66 67 65 63 61 61 62 61 57 55 58 59 55 52 50 44 35 28 24 21 21 20 20 25 30 29 26 23 20 19 19 18 17 17 17 18 17 15 14 14 14 16 17
41 42 43 44 44 44 45 46 47 48 49 50 51 52 53 53 54 54 53 53 56 59 61 61 60 59 58 57 59 63 66 67 66 65 63 61 59 59 59 58 57 59 58 53 50 47 39 29 23 21 20 19 19 21 26 28 26 24 22 20 19 19 18 16 16 16 16 16 15 14 14 15 17 18
41 42 43 43 43 44 45 46 47 48 49 49 50 51 51 50 50 50 50 52 53 53 53 53 51 50 52 55 56 58 63 66 65 64 65 65 61 58 58 59 59 59 55 50 45 39 29 20 17 18 19 19 21 24 27 26 24 22 21 20 19 18 17 15 15 15 16 16 15 14 14 16 17 18
39 40 41 42 42 43 43 44 45 45 46 47 48 48 47 46 45 46 47 47 45 43 42 42 42 41 43 46 48 50 57 63 65 66 68 67 65 64 65 62 56 52 46 38 31 24 17 15 17 19 19 20 23 25 25 23 22 21 20 20 19 17 15 15 14 15 16 15 14 14 14 16 17 18
38 38 39 40 40 41 41 42 43 43 44 44 46 46 45 44 42 42 41 40 40 39 37 35 35 35 35 35 37 40 47 58 66 70 71 70 68 67 64 57 47 38 31 25 22 19 17 17 18 17 18 20 22 22 21 21 21 20 19 19 19 17 15 15 15 15 15 15 15 15 15 16 17 17
37 37 37 38 38 39 39 39 39 40 40 41 42 42 41 39 36 35 35 34 36 37 35 31 30 30 31 31 32 30 34 46 58 59 57 59 59 53 45 40 32 24 21 22 22 20 17 15 14 15 18 19 20 19 19 19 20 20 19 19 19 16 15 15 15 16 15 15 15 15 16 17 17 17
34 35 35 36 36 37 37 36 36 36 37 38 38 37 36 35 34 34 33 31 32 33 33 30 28 27 27 29 31 29 30 41 48 42 32 31 34 32 28 24 20 19 21 22 20 16 13 12 14 16 17 18 18 18 19 19 20 20 20 19 17 15 15 15 15 16 16 15 15 15 16 16 17 18
32 33 34 34 34 35 34 34 34 35 35 35 36 35 35 34 34 33 32 29 27 25 22 20 20 17 14 11 15 21 23 26 30 29 26 24 24 21 20 20 19 18 17 16 13 12 12 14 16 16 17 17 17 18 19 20 21 21 20 19 16 15 15 15 15 16 16 15 14 14 15 16 17 17
Wind_Direction
229 229 225 217 208 196 190 185 140 102 88 76 55 44 44 44 49 53 41 24 20 27 42 46 29 15 19 27 29 28 26 23 18 16 17 3 347 347 338 323 320 319 317 317 316 314 312 313 317 320 319 318 318 321 325 328 329 329 326 321 316 314 316 317 317 317 314 312 307 302 298 295 293 292
231 234 234 228 217 209 206 209 209 142 92 84 63 37 29 28 31 39 41 28 11 8 20 29 22 13 14 17 17 13 10 11 9 7 9 9 7 4 357 344 331 324 318 315 313 310 309 311 315 317 317 317 318 320 324 327 328 327 325 322 320 318 318 320 322 322 320 317 314 309 305 300 296 292
236 237 240 242 234 224 220 221 223 232 299 41 50 31 14 12 14 19 24 24 11 1 5 12 12 13 14 10 7 2 354 352 354 356 357 359 2 1 358 351 339 327 319 312 309 308 308 311 314 316 316 316 319 322 325 327 327 326 326 326 324 320 320 325 328 328 325 323 320 317 313 309 304 297
242 241 240 246 248 242 234 233 234 235 255 293 325 349 355 355 358 3 6 9 5 358 359 3 3 5 7 1 359 355 345 337 338 342 345 346 347 349 348 343 335 325 316 311 310 309 310 311 313 314 314 315 320 324 326 328 328 328 328 327 323 321 324 330 332 331 330 328 326 323 321 318 313 306
247 247 244 242 247 252 249 243 244 244 247 264 285 302 321 333 338 347 351 354 354 350 351 356 356 357 358 353 349 346 338 330 328 330 332 333 333 336 337 333 328 322 316 313 312 311 311 310 311 310 309 313 320 326 329 330 330 329 328 325 323 324 329 333 334 332 330 328 328 327 325 323 319 313
250 249 248 242 242 251 256 254 252 252 251 254 263 277 289 300 311 322 329 334 337 336 338 343 345 347 350 346 340 335 329 325 325 324 323 323 321 323 327 325 322 318 314 312 311 309 308 307 308 308 308 312 320 326 330 332 331 329 325 324 324 327 331 332 332 330 327 327 327 327 326 325 323 320
252 249 249 247 244 246 252 257 259 259 258 256 255 261 270 276 282 292 302 311 316 319 323 328 331 335 341 340 334 329 325 324 327 324 319 318 314 312 313 315 315 312 310 310 310 306 303 304 308 310 312 316 321 327 331 332 329 327 324 324 326 328 329 329 328 327 325 325 325 325 325 324 324 324
263 255 250 250 249 248 249 251 256 261 263 263 259 256 261 267 271 272 278 287 295 301 308 313 316 321 327 330 330 327 323 324 328 324 316 314 311 306 303 304 306 306 305 305 306 304 304 308 312 315 318 320 323 328 331 330 328 326 325 325 327 327 325 324 325 325 324 323 323 324 324 323 323 324
282 270 259 253 252 254 254 251 252 256 260 265 266 262 260 265 269 270 270 273 278 285 293 299 302 307 313 317 319 319 317 318 322 321 314 310 308 304 300 298 300 304 303 300 300 302 306 310 314 317 320 322 324 328 329 329 328 327 325 325 325 323 321 321 324 325 323 321 321 322 322 321 322 324
286 282 274 263 256 256 259 260 258 257 258 261 265 266 265 264 266 270 272 272 273 275 280 286 290 295 300 304 308 312 310 310 313 314 311 310 308 304 301 298 298 302 304 302 301 303 306 309 312 316 319 322 325 327 329 331 329 326 324 324 322 320 318 320 324 323 321 319 319 320 320 319 320 322
279 279 277 272 265 260 260 262 263 262 262 262 264 266 267 265 265 267 271 272 272 273 275 278 282 287 290 293 298 302 302 304 307 305 306 311 311 306 305 302 299 301 303 303 302 302 304 306 310 314 318 322 324 327 331 333 329 324 322 322 319 316 316 319 321 320 317 317 319 321 321 320 320 321
277 275 273 272 270 267 263 262 262 262 263 263 264 265 266 267 267 268 269 271 272 273 274 275 279 282 284 287 291 293 295 299 300 297 301 308 310 307 309 308 303 301 301 301 302 304 305 307 311 314 318 322 324 328 333 333 327 321 320 319 315 313 314 317 320 319 319 319 322 325 325 323 321 321
276 273 271 270 271 271 270 267 264 263 262 261 262 264 265 266 268 268 269 270 271 273 274 276 278 279 281 284 287 289 293 295 294 293 298 303 303 304 307 309 307 304 301 299 300 303 304 306 310 315 319 322 325 329 333 331 325 320 317 314 312 312 315 318 321 323 323 324 325 327 328 325 323 323
276 275 274 272 271 270 270 269 268 267 265 265 264 264 264 266 267 268 268 269 271 273 275 276 277 279 281 283 286 289 291 291 291 292 295 296 297 299 303 305 305 305 301 298 298 301 303 304 307 313 319 323 327 331 331 329 323 317 312 309 310 313 316 319 323 327 327 327 327 329 329 327 325 326
276 276 276 275 273 270 269 268 269 269 269 269 269 267 266 266 267 267 267 268 269 270 272 274 275 277 280 283 286 288 289 290 291 291 291 291 293 297 299 300 301 302 299 297 297 300 302 303 307 315 321 325 330 332 329 325 319 311 307 307 310 313 316 319 324 328 329 328 327 330 331 329 328 328
278 278 278 278 277 275 273 271 270 270 269 270 270 271 270 269 268 268 267 268 268 269 270 271 272 274 278 281 283 286 288 289 289 287 286 288 291 293 294 296 297 296 296 296 296 298 298 299 307 317 321 324 330 331 325 319 312 306 305 307 309 312 315 319 323 327 328 326 326 330 330 327 327 327
281 281 281 281 281 281 280 277 274 272 272 271 271 272 272 272 271 272 271 271 270 270 270 270 271 273 275 277 280 283 286 286 284 284 285 287 288 288 290 292 291 290 291 293 293 292 291 293 301 312 316 320 326 327 321 314 306 304 306 305 306 310 314 318 322 323 324 322 322 325 326 323 322 323
284 284 284 284 284 285 284 282 281 279 277 275 274 273 272 273 273 274 274 274 274 273 272 273 274 275 275 275 277 278 279 279 280 282 283 284 285 285 286 286 286 287 288 289 288 286 285 285 288 296 305 313 320 320 315 310 303 300 302 303 303 309 314 316 318 318 319 318 317 319 321 320 320 320
287 287 287 287 287 287 286 286 286 285 284 281 278 276 275 274 274 274 274 275 276 276 275 275 276 276 275 275 274 274 274 276 277 279 280 281 281 282 283 284 284 285 285 284 284 283 278 275 276 284 296 307 313 311 307 304 299 295 299 302 302 307 312 312 312 314 315 314 313 316 321 322 322 322
288 289 288 288 288 288 288 288 288 288 288 286 282 280 279 278 277 276 276 276 277 277 277 277 277 277 276 275 274 273 273 274 275 276 276 276 277 280 283 283 283 283 283 283 283 279 269 264 268 280 292 303 311 310 299 296 296 293 295 299 300 303 307 307 308 310 311 311 312 317 325 327 327 326
286 287 287 288 288 288 288 289 290 289 288 287 286 285 284 282 281 279 277 276 276 277 278 278 279 278 276 275 275 274 274 274 274 274 274 275 278 280 281 280 280 282 282 282 281 275 265 259 265 277 287 299 314 313 298 292 293 289 290 296 297 298 301 304 306 306 306 309 313 318 327 332 332 329
282 284 285 286 286 286 288 289 289 288 288 287 288 287 287 285 282 279 279 279 279 280 280 280 279 278 278 278 278 277 276 275 275 274 275 276 277 276 277 278 278 279 279 280 280 274 264 256 262 273 280 299 317 313 295 288 289 284 285 292 292 293 298 300 301 301 302 308 313 318 328 334 333 330
279 280 281 282 284 285 287 288 288 287 286 286 287 286 286 285 284 283 283 283 283 282 280 279 279 279 279 279 278 277 276 275 274 275 275 275 274 274 277 278 276 277 280 282 280 274 263 252 255 267 275 296 313 307 287 283 285 279 279 286 287 291 295 296 296 297 301 308 312 318 328 334 332 328
282 280 279 280 282 283 284 285 285 285 286 286 285 283 282 284 286 287 285 283 281 280 279 279 279 278 277 276 274 274 273 272 273 273 274 274 273 275 277 277 276 278 281 280 277 273 264 251 250 262 273 290 306 300 278 278 282 274 274 282 284 287 290 290 292 295 299 304 310 319 328 330 329 325
283 283 282 282 283 283 284 284 283 285 286 285 284 282 282 284 285 284 282 280 279 278 277 277 277 276 275 273 271 271 271 271 271 272 273 273 274 275 276 275 275 276 277 277 276 273 264 252 249 259 270 287 303 297 275 275 279 270 269 275 278 281 285 287 289 291 294 302 310 319 324 325 325 323
286 286 286 286 285 284 284 284 284 284 285 285 284 283 284 285 281 278 278 279 280 280 278 276 275 273 272 271 269 269 269 269 270 270 271 273 275 275 275 274 273 273 273 273 273 270 261 249 247 255 265 283 301 295 274 274 277 268 266 272 274 278 283 286 287 287 291 300 307 313 318 321 321 320
287 287 287 287 286 285 285 285 284 285 285 285 285 286 287 283 277 274 275 275 277 277 276 275 274 272 271 270 268 268 268 268 269 270 271 273 274 275 274 272 270 269 267 267 268 267 257 245 246 254 262 279 299 293 272 271 274 267 264 268 270 275 280 283 285 286 289 297 303 306 315 319 316 313
287 286 286 287 287 286 285 284 284 285 285 285 285 287 288 283 277 276 278 276 275 274 274 275 276 275 274 273 271 270 268 268 269 270 270 270 270 270 271 269 267 265 264 264 267 267 258 246 246 253 260 277 296 287 265 267 273 265 261 264 265 270 276 278 280 283 286 293 300 305 314 315 310 309
289 289 288 288 287 286 284 284 284 283 282 284 284 285 287 285 283 282 282 280 278 278 278 278 278 278 277 276 275 274 270 267 266 266 265 264 263 264 265 263 262 262 261 262 264 263 255 247 247 251 258 277 293 279 259 265 272 263 258 261 262 266 271 274 277 281 284 290 297 305 310 309 307 309
290 289 289 289 288 287 286 285 284 282 282 283 284 284 285 287 286 286 285 283 282 283 284 282 279 278 275 273 274 275 273 269 265 262 260 260 259 260 261 260 260 260 260 260 260 257 251 246 247 248 254 274 290 275 257 262 269 261 256 258 260 263 268 270 273 278 281 287 295 302 305 305 306 309
288 287 287 287 288 287 287 286 285 284 284 285 285 285 286 286 287 288 288 285 284 284 284 282 281 279 275 271 271 272 273 273 270 266 263 261 259 258 259 259 259 259 259 260 260 255 248 243 243 244 250 270 286 272 255 259 266 259 254 255 257 260 264 266 270 274 277 284 293 297 300 303 305 308
284 285 285 286 287 288 288 287 287 287 288 289 290 290 290 290 290 289 288 285 284 284 283 281 281 279 275 273 274 273 271 272 274 272 269 265 262 259 257 256 256 256 256 259 259 253 244 238 237 240 248 267 279 265 254 259 264 257 252 254 254 256 260 262 266 271 274 281 289 292 298 303 304 306
284 286 287 288 289 289 289 289 290 292 293 294 295 294 294 294 292 290 288 286 286 286 285 283 281 279 276 276 276 274 272 273 275 275 272 269 266 261 256 253 254 255 255 257 256 249 240 233 231 234 247 266 271 257 251 257 259 251 248 251 252 253 256 259 263 268 271 277 283 289 297 302 301 303
285 287 288 290 291 292 292 294 295 297 297 296 295 294 294 293 292 290 289 288 289 290 289 287 285 283 283 282 280 278 278 278 277 274 271 268 266 263 257 253 253 253 252 253 252 244 234 228 226 229 245 263 262 249 248 255 255 248 246 249 251 252 254 257 261 265 269 273 280 286 293 297 298 301
288 290 292 294 295 296 297 297 298 298 297 295 294 294 293 292 291 291 291 292 294 294 293 290 286 285 285 285 283 281 279 278 276 273 269 265 264 263 259 254 252 253 251 249 246 237 229 225 224 228 243 256 251 246 249 253 251 246 245 248 250 250 253 257 260 264 268 273 277 282 289 295 298 300
294 296 297 297 298 298 298 297 297 296 295 295 294 294 293 292 292 292 294 296 296 294 292 289 286 284 282 281 281 281 281 279 276 271 267 263 261 261 261 256 251 251 250 246 239 233 228 225 224 230 247 253 242 243 252 253 247 244 243 244 247 247 251 257 261 265 270 273 277 283 292 298 300 300
297 297 297 297 297 296 296 296 296 295 295 295 295 295 295 295 295 295 296 295 292 291 290 289 287 285 282 280 280 281 280 279 275 270 268 265 261 259 260 257 251 248 246 239 232 230 227 223 222 234 252 247 234 238 248 248 243 241 240 241 244 244 247 255 260 264 268 272 278 289 297 301 301 302
298 297 297 297 297 297 297 297 297 297 298 298 298 297 297 296 296 296 295 293 290 289 288 287 286 285 284 284 285 283 279 277 274 271 268 266 263 260 260 258 252 245 237 228 224 226 222 216 224 240 246 236 231 237 242 240 237 237 238 240 244 246 248 253 259 262 267 273 281 291 297 300 303 303
300 300 299 299 299 299 299 300 300 300 300 300 299 299 299 298 298 297 296 293 290 288 288 288 288 287 285 285 285 283 278 276 274 271 269 269 267 263 260 256 248 238 225 214 212 215 213 212 227 238 231 226 232 237 236 234 233 233 235 239 244 245 248 252 257 262 269 275 282 289 295 300 303 304
299 299 299 299 299 299 300 300 300 301 301 301 300 300 301 301 299 297 294 292 291 291 292 291 290 287 280 275 275 277 278 278 276 274 271 268 263 257 255 252 241 226 213 203 202 206 208 211 219 219 217 224 232 233 231 231 230 229 232 237 240 243 248 253 259 266 271 275 282 291 297 299 300 302
296 297 297 298 299 300 301 302 303 303 303 304 303 304 305 304 302 298 295 293 294 296 296 295 294 290 282 274 271 274 275 274 272 269 264 256 248 241 238 235 223 207 197 194 198 201 202 200 200 206 218 229 233 233 231 229 228 229 233 237 241 246 251 256 262 268 272 278 287 291 293 293 296 299
297 297 298 300 302 304 305 306 307 307 308 308 308 309 309 308 304 301 299 298 298 296 296 296 295 291 286 280 273 267 261 254 250 250 250 247 241 232 222 211 197 184 180 186 193 193 191 191 196 212 228 233 234 234 230 226 228 232 236 241 245 248 253 259 266 270 274 281 286 288 289 292 295 298
298 300 301 303 305 307 307 308 309 309 310 309 309 309 311 311 309 307 305 304 299 292 288 289 288 286 287 285 278 273 264 245 230 223 223 225 222 213 197 183 174 172 178 186 188 185 184 191 207 225 233 235 236 234 229 227 231 234 236 242 246 249 254 261 266 271 275 279 283 286 290 294 296 298
300 302 303 305 307 308 308 309 309 309 308 306 304 302 302 303 304 305 305 303 297 286 280 282 288 296 302 291 270 256 248 235 219 201 186 183 180 171 165 169 177 184 187 185 180 175 182 203 220 227 230 232 233 231 228 229 232 234 236 241 244 248 254 259 264 270 275 277 282 288 293 294 296 300
302 303 304 306 307 309 310 311 311 310 308 306 303 301 299 299 301 304 305 305 304 301 301 307 311 315 319 289 235 204 191 190 183 167 153 150 155 165 183 191 186 179 174 168 163 171 194 212 222 227 229 229 227 227 227 228 230 233 236 238 241 246 252 258 264 269 272 278 287 292 292 292 295 300
Height
3234 3235 3235 3236 3236 3236 3237 3237 3237 3236 3236 3236 3236 3236 3235 3235 3235 3235 3234 3234 3233 3233 3233 3233 3232 3231 3231 3230 3229 3228 3228 3227 3227 3227 3227 3226 3225 3225 3224 3223 3223 3222 3222 3222 3221 3221 3220 3219 3219 3218 3217 3216 3215 3214 3212 3211 3210 3209 3208 3206 3204 3202 3200 3198 3197 3195 3194 3192 3191 3190 3188 3187 3186 3185
3233 3233 3234 3235 3235 3236 3236 3236 3236 3236 3236 3236 3236 3236 3235 3235 3235 3235 3234 3233 3233 3232 3232 3232 3231 3231 3230 3229 3228 3228 3228 3227 3227 3226 3226 3225 3224 3223 3223 3222 3221 3221 3221 3220 3220 3220 3219 3218 3218 3217 3216 3215 3213 3212 3211 3210 3209 3207 3206 3204 3202 3199 3197 3196 3194 3192 3191 3189 3188 3187 3186 3184 3183 3182
3231 3232 3233 3233 3234 3235 3235 3235 3235 3235 3235 3235 3235 3235 3235 3235 3234 3234 3233 3233 3232 3231 3231 3231 3230 3230 3229 3228 3228 3227 3227 3227 3227 3226 3225 3224 3223 3222 3221 3221 3220 3220 3219 3219 3218 3218 3218 3217 3216 3215 3214 3213 3212 3211 3210 3208 3207 3205 3203 3201 3199 3197 3195 3193 3191 3189 3188 3187 3185 3184 3183 3181 3180 3179
3229 3230 3231 3232 3233 3233 3234 3234 3234 3234 3234 3234 3234 3234 3234 3234 3234 3233 3233 3232 3232 3231 3230 3230 3229 3229 3228 3228 3227 3227 3226 3226 3226 3225 3224 3223 3222 3221 3220 3219 3219 3218 3218 3217 3217 3216 3216 3215 3215 3214 3213 3212 3210 3209 3208 3206 3205 3203 3200 3198 3196 3194 3192 3190 3188 3187 3186 3184 3183 3182 3180 3179 3178 3177
3228 3228 3229 3230 3231 3231 3232 3233 3233 3233 3233 3233 3233 3233 3233 3233 3233 3233 3232 3232 3231 3230 3230 3229 3229 3228 3228 3227 3227 3227 3226 3226 3225 3224 3223 3222 3221 3220 3219 3218 3217 3216 3216 3215 3215 3215 3214 3213 3213 3212 3211 3210 3209 3207 3206 3204 3202 3200 3198 3196 3194 3192 3189 3188 3186 3185 3183 3182 3181 3179 3178 3177 3176 3175
3226 3227 3227 3229 3229 3230 3230 3231 3231 3231 3231 3232 3232 3232 3232 3232 3232 3232 3231 3231 3231 3230 3229 3228 3228 3228 3228 3227 3227 3226 3226 3225 3224 3223 3222 3221 3220 3219 3218 3217 3216 3215 3214 3214 3213 3213 3212 3211 3211 3210 3209 3208 3207 3205 3204 3202 3200 3198 3196 3194 3192 3189 3187 3185 3184 3183 3181 3180 3179 3177 3176 3175 3174 3173
3224 3225 3225 3226 3227 3228 3228 3228 3229 3229 3230 3230 3230 3230 3230 3230 3230 3230 3230 3229 3229 3228 3228 3227 3226 3226 3226 3226 3226 3225 3224 3223 3222 3221 3220 3219 3218 3217 3217 3216 3215 3213 3212 3211 3211 3211 3210 3209 3209 3208 3207 3206 3204 3203 3202 3200 3198 3196 3194 3192 3190 3188 3186 3184 3182 3181 3179 3178 3176 3175 3174 3173 3172 3171
3222 3223 3223 3224 3225 3225 3226 3226 3227 3227 3227 3228 3228 3229 3228 3228 3228 3228 3228 3227 3227 3226 3226 3225 3224 3224 3224 3224 3223 3223 3222 3221 3220 3219 3218 3217 3216 3215 3215 3214 3213 3212 3210 3209 3209 3208 3208 3207 3206 3205 3204 3203 3202 3201 3199 3198 3196 3194 3192 3190 3188 3186 3184 3182 3180 3179 3177 3176 3174 3173 3171 3170 3169 3168
3220 3220 3221 3222 3222 3223 3223 3224 3224 3225 3225 3225 3226 3226 3227 3226 3226 3226 3225 3225 3225 3224 3224 3223 3223 3222 3221 3221 3221 3220 3220 3218 3218 3217 3216 3215 3214 3213 3212 3212 3211 3210 3209 3208 3207 3206 3205 3205 3204 3203 3202 3201 3199 3198 3197 3196 3194 3191 3190 3188 3186 3184 3183 3181 3178 3177 3175 3174 3172 3170 3169 3168 3167 3166
3217 3217 3218 3219 3220 3220 3220 3221 3222 3222 3223 3223 3223 3223 3224 3224 3224 3223 3223 3223 3222 3222 3222 3221 3221 3220 3219 3219 3218 3218 3217 3216 3215 3214 3214 3213 3212 3211 3210 3209 3208 3208 3207 3206 3205 3204 3203 3202 3202 3201 3200 3198 3197 3196 3195 3193 3191 3189 3188 3186 3185 3183 3181 3179 3176 3175 3173 3172 3170 3168 3167 3166 3165 3164
3214 3214 3215 3215 3216 3217 3217 3218 3219 3219 3220 3220 3220 3220 3221 3221 3221 3220 3220 3220 3219 3219 3219 3219 3218 3218 3217 3217 3216 3216 3215 3214 3213 3212 3211 3211 3210 3208 3207 3206 3206 3205 3205 3204 3202 3201 3200 3200 3199 3198 3197 3196 3194 3193 3192 3190 3188 3187 3186 3185 3183 3182 3180 3177 3175 3173 3172 3170 3168 3167 3165 3164 3163 3161
3211 3212 3212 3212 3212 3213 3214 3215 3215 3215 3216 3216 3217 3217 3217 3217 3217 3217 3217 3217 3216 3216 3216 3216 3215 3215 3214 3214 3214 3213 3212 3212 3211 3210 3208 3208 3207 3205 3204 3203 3202 3202 3201 3201 3200 3198 3197 3197 3196 3196 3195 3193 3192 3191 3189 3187 3186 3185 3184 3183 3182 3180 3178 3175 3173 3171 3170 3168 3166 3164 3163 3162 3161 3159
3208 3209 3209 3209 3209 3210 3210 3211 3211 3212 3212 3212 3213 3213 3213 3213 3213 3213 3213 3213 3213 3213 3212 3212 3212 3211 3211 3211 3211 3210 3209 3209 3209 3207 3206 3205 3204 3203 3201 3200 3199 3198 3198 3197 3197 3196 3195 3194 3193 3193 3192 3191 3190 3188 3187 3185 3184 3183 3182 3181 3180 3178 3176 3174 3171 3170 3168 3166 3164 3162 3160 3159 3158 3157
3205 3205 3205 3206 3206 3206 3206 3207 3207 3208 3208 3208 3209 3209 3209 3209 3209 3209 3209 3209 3209 3209 3209 3208 3208 3207 3207 3207 3207 3206 3206 3206 3205 3204 3203 3202 3201 3200 3199 3198 3197 3195 3194 3193 3194 3194 3192 3191 3190 3190 3189 3188 3187 3186 3184 3183 3181 3180 3180 3179 3178 3176 3174 3171 3169 3167 3166 3164 3162 3160 3158 3157 3156 3155
3202 3202 3202 3202 3203 3203 3203 3203 3204 3204 3204 3205 3205 3205 3205 3205 3204 3204 3204 3204 3205 3204 3204 3204 3204 3203 3203 3203 3203 3202 3202 3202 3201 3200 3199 3198 3198 3197 3196 3196 3195 3193 3191 3190 3190 3190 3189 3188 3187 3186 3185 3184 3183 3183 3181 3180 3179 3178 3177 3176 3175 3173 3171 3169 3167 3165 3163 3162 3160 3158 3156 3155 3154 3153
3199 3199 3199 3199 3199 3199 3200 3200 3200 3200 3200 3201 3201 3201 3201 3200 3200 3199 3199 3199 3199 3199 3199 3199 3199 3199 3199 3199 3199 3199 3198 3198 3197 3196 3195 3194 3194 3193 3192 3192 3192 3190 3188 3186 3186 3186 3185 3184 3184 3182 3181 3180 3179 3179 3179 3177 3176 3175 3174 3173 3172 3171 3168 3166 3164 3162 3161 3160 3158 3156 3154 3154 3153 3151
3195 3195 3195 3195 3196 3196 3196 3196 3196 3196 3197 3197 3197 3196 3196 3195 3195 3195 3194 3194 3194 3194 3194 3193 3192 3193 3194 3194 3194 3195 3194 3193 3192 3191 3190 3190 3189 3189 3188 3188 3187 3186 3184 3182 3182 3182 3181 3180 3180 3179 3178 3177 3176 3176 3176 3175 3174 3173 3171 3170 3169 3168 3165 3163 3161 3160 3159 3157 3156 3154 3153 3152 3151 3150
3192 3192 3192 3192 3192 3193 3193 3193 3193 3193 3193 3193 3193 3192 3191 3191 3191 3190 3189 3188 3188 3189 3188 3187 3187 3188 3189 3188 3189 3190 3189 3188 3187 3186 3186 3185 3184 3183 3183 3183 3182 3181 3180 3179 3178 3178 3177 3176 3176 3175 3175 3174 3173 3173 3173 3172 3171 3170 3168 3167 3166 3164 3162 3160 3159 3158 3156 3155 3154 3153 3151 3151 3150 3148
3188 3189 3189 3188 3189 3189 3189 3189 3189 3189 3189 3189 3188 3187 3186 3186 3186 3186 3184 3183 3183 3183 3182 3182 3182 3183 3183 3183 3184 3184 3183 3182 3182 3182 3181 3180 3179 3178 3177 3177 3177 3176 3176 3175 3174 3174 3173 3172 3171 3171 3170 3170 3170 3170 3169 3168 3168 3167 3165 3164 3162 3161 3160 3158 3156 3155 3154 3153 3152 3151 3149 3149 3148 3146
3185 3185 3185 3185 3185 3185 3185 3185 3185 3185 3184 3183 3183 3182 3181 3181 3180 3180 3179 3179 3178 3177 3176 3176 3177 3177 3177 3176 3177 3177 3177 3176 3176 3176 3175 3174 3173 3172 3172 3171 3171 3171 3171 3171 3170 3170 3169 3168 3167 3167 3166 3166 3166 3166 3165 3165 3164 3163 3161 3160 3159 3158 3157 3155 3154 3153 3152 3151 3150 3148 3147 3146 3145 3144
3182 3182 3181 3181 3181 3181 3181 3181 3181 3180 3180 3178 3177 3176 3176 3175 3174 3173 3173 3173 3172 3171 3171 3171 3171 3171 3171 3170 3170 3171 3171 3171 3170 3169 3168 3168 3168 3168 3166 3165 3165 3165 3166 3166 3165 3165 3164 3164 3163 3163 3163 3162 3162 3162 3161 3161 3160 3159 3158 3157 3156 3155 3154 3153 3152 3151 3150 3149 3147 3145 3144 3143 3142 3141
3179 3178 3178 3177 3176 3176 3177 3177 3176 3175 3174 3173 3172 3171 3170 3169 3167 3166 3167 3167 3167 3166 3165 3164 3165 3164 3164 3164 3165 3164 3164 3164 3163 3161 3161 3162 3163 3161 3160 3160 3159 3159 3160 3160 3160 3160 3160 3160 3159 3159 3159 3159 3159 3159 3158 3157 3157 3156 3155 3154 3153 3153 3151 3150 3149 3149 3148 3146 3145 3142 3140 3140 3139 3138
3175 3174 3174 3173 3172 3172 3172 3172 3171 3170 3169 3167 3166 3165 3163 3161 3160 3160 3162 3162 3162 3161 3159 3158 3158 3158 3157 3158 3158 3157 3157 3157 3156 3155 3155 3155 3155 3154 3155 3155 3153 3153 3154 3156 3156 3156 3156 3155 3155 3155 3155 3155 3156 3156 3155 3154 3153 3152 3151 3151 3150 3149 3149 3148 3147 3146 3145 3144 3142 3140 3137 3137 3136 3135
3169 3169 3169 3169 3169 3168 3168 3167 3166 3165 3163 3161 3160 3158 3156 3153 3153 3155 3156 3156 3157 3156 3153 3152 3152 3151 3151 3150 3150 3150 3150 3149 3149 3149 3149 3148 3148 3149 3150 3150 3148 3147 3150 3151 3152 3152 3151 3151 3151 3151 3151 3151 3152 3152 3151 3150 3150 3149 3148 3147 3147 3146 3146 3145 3145 3144 3143 3141 3139 3137 3135 3134 3134 3133
3163 3163 3164 3165 3165 3165 3164 3162 3161 3159 3158 3156 3154 3151 3148 3146 3147 3148 3148 3148 3150 3150 3148 3146 3145 3144 3143 3142 3141 3141 3142 3142 3142 3143 3142 3142 3144 3145 3146 3145 3143 3143 3145 3147 3147 3147 3147 3146 3146 3146 3146 3146 3147 3147 3147 3146 3146 3145 3144 3144 3144 3143 3143 3142 3142 3141 3140 3138 3136 3134 3132 3131 3131 3131
3158 3158 3158 3160 3160 3160 3158 3157 3155 3154 3152 3150 3147 3144 3142 3141 3140 3141 3141 3143 3144 3144 3142 3140 3138 3136 3135 3134 3133 3133 3134 3134 3135 3136 3137 3138 3139 3139 3140 3140 3138 3139 3141 3142 3142 3142 3142 3141 3140 3141 3142 3143 3142 3142 3142 3142 3141 3141 3141 3140 3140 3140 3139 3139 3139 3138 3137 3136 3134 3132 3130 3129 3129 3128
3154 3153 3153 3154 3154 3153 3152 3151 3150 3148 3147 3144 3141 3139 3137 3134 3132 3134 3137 3139 3139 3138 3135 3132 3129 3127 3127 3126 3125 3126 3126 3127 3128 3130 3131 3133 3133 3133 3133 3134 3133 3134 3135 3136 3136 3137 3137 3136 3135 3137 3138 3138 3138 3138 3138 3138 3137 3137 3137 3136 3136 3136 3136 3135 3135 3135 3134 3133 3131 3129 3128 3126 3126 3126
3149 3148 3148 3147 3147 3147 3146 3145 3144 3143 3142 3139 3136 3134 3131 3127 3125 3128 3130 3130 3131 3130 3127 3123 3120 3119 3119 3118 3117 3119 3120 3121 3122 3123 3124 3125 3126 3126 3127 3128 3128 3128 3128 3130 3132 3132 3131 3131 3131 3132 3134 3134 3133 3134 3134 3134 3133 3133 3133 3133 3133 3133 3132 3132 3132 3132 3131 3129 3128 3126 3125 3124 3123 3123
3143 3141 3141 3141 3141 3140 3140 3139 3139 3138 3137 3135 3133 3130 3127 3122 3120 3122 3122 3121 3121 3120 3117 3114 3112 3110 3110 3109 3109 3111 3113 3114 3114 3114 3114 3115 3116 3117 3119 3121 3121 3121 3121 3124 3127 3126 3124 3125 3127 3128 3129 3129 3129 3129 3130 3130 3130 3130 3129 3129 3129 3129 3129 3129 3129 3129 3128 3126 3125 3123 3122 3121 3120 3119
3137 3136 3135 3134 3134 3134 3134 3134 3133 3132 3132 3131 3128 3126 3123 3118 3115 3114 3114 3113 3112 3110 3107 3105 3103 3100 3100 3101 3101 3103 3104 3104 3104 3105 3105 3105 3107 3109 3111 3113 3113 3114 3115 3117 3120 3120 3118 3119 3121 3122 3124 3124 3124 3125 3125 3125 3126 3126 3126 3126 3126 3126 3126 3126 3126 3126 3125 3123 3121 3120 3119 3118 3117 3116
3131 3131 3130 3129 3129 3129 3129 3128 3127 3127 3126 3125 3122 3120 3118 3114 3110 3107 3106 3105 3104 3102 3099 3097 3094 3091 3091 3093 3094 3095 3096 3095 3096 3098 3099 3099 3100 3102 3104 3106 3107 3107 3108 3110 3113 3113 3112 3112 3114 3116 3118 3119 3119 3120 3120 3121 3122 3123 3122 3122 3122 3122 3122 3122 3123 3123 3122 3120 3118 3117 3116 3115 3114 3113
3127 3127 3126 3125 3124 3124 3123 3122 3121 3121 3119 3117 3115 3113 3111 3109 3106 3102 3098 3096 3095 3093 3091 3089 3087 3084 3083 3084 3085 3087 3089 3089 3090 3091 3093 3094 3094 3095 3096 3098 3099 3100 3102 3104 3106 3106 3104 3105 3107 3109 3111 3113 3114 3114 3115 3117 3118 3118 3118 3119 3119 3119 3119 3119 3119 3119 3119 3117 3115 3114 3113 3112 3111 3110
3123 3122 3121 3120 3120 3118 3117 3116 3115 3114 3112 3110 3107 3105 3103 3101 3098 3095 3092 3088 3086 3084 3083 3082 3079 3075 3074 3076 3078 3080 3082 3084 3084 3084 3085 3086 3086 3086 3086 3088 3090 3092 3094 3096 3098 3098 3097 3098 3101 3104 3105 3107 3108 3108 3110 3112 3113 3114 3115 3115 3116 3116 3115 3115 3115 3116 3115 3114 3113 3111 3110 3109 3108 3107
3119 3118 3117 3115 3114 3113 3111 3109 3108 3106 3104 3101 3099 3096 3094 3093 3090 3087 3084 3081 3079 3077 3075 3073 3069 3065 3065 3068 3072 3073 3074 3075 3075 3074 3074 3075 3076 3074 3074 3077 3081 3084 3086 3088 3090 3091 3091 3092 3095 3098 3100 3101 3102 3103 3105 3108 3109 3110 3111 3111 3112 3112 3112 3111 3112 3112 3111 3111 3110 3108 3107 3107 3106 3105
3114 3113 3111 3109 3108 3106 3104 3102 3100 3098 3096 3093 3091 3088 3085 3084 3082 3079 3076 3074 3072 3070 3067 3063 3061 3059 3057 3058 3059 3061 3063 3065 3066 3064 3063 3064 3065 3064 3064 3068 3072 3074 3078 3082 3084 3084 3084 3086 3089 3092 3093 3094 3096 3098 3100 3103 3104 3105 3106 3107 3108 3108 3108 3108 3108 3108 3108 3107 3106 3105 3105 3104 3103 3102
3108 3107 3105 3103 3101 3099 3097 3095 3093 3091 3089 3086 3083 3080 3076 3075 3073 3071 3069 3067 3064 3061 3058 3055 3052 3049 3047 3046 3047 3048 3049 3052 3054 3052 3051 3051 3053 3055 3057 3060 3063 3066 3070 3074 3077 3076 3077 3080 3084 3087 3088 3089 3092 3094 3096 3098 3099 3101 3102 3104 3104 3105 3104 3104 3104 3104 3104 3103 3103 3102 3101 3101 3100 3099
3102 3100 3099 3097 3095 3092 3090 3088 3086 3084 3082 3079 3076 3073 3069 3066 3065 3063 3062 3060 3055 3050 3048 3046 3042 3038 3035 3035 3036 3037 3036 3036 3037 3037 3037 3039 3042 3047 3050 3052 3054 3057 3061 3065 3067 3068 3071 3075 3078 3082 3084 3086 3089 3092 3092 3093 3094 3097 3098 3100 3100 3101 3101 3101 3100 3100 3100 3099 3098 3097 3097 3097 3097 3096
3095 3094 3092 3090 3088 3086 3084 3082 3079 3076 3074 3072 3069 3066 3063 3059 3056 3055 3053 3050 3045 3041 3038 3035 3032 3028 3025 3024 3024 3024 3023 3023 3023 3024 3026 3029 3032 3036 3041 3043 3045 3049 3053 3056 3057 3059 3065 3070 3074 3078 3081 3082 3086 3089 3088 3088 3091 3093 3094 3095 3096 3097 3097 3097 3097 3097 3097 3096 3095 3094 3093 3093 3093 3092
3089 3087 3085 3083 3082 3080 3078 3075 3073 3070 3067 3064 3061 3058 3055 3052 3048 3045 3043 3039 3035 3031 3028 3024 3022 3019 3017 3015 3014 3013 3012 3012 3013 3015 3017 3020 3023 3027 3031 3034 3036 3040 3045 3049 3050 3054 3060 3066 3071 3075 3077 3080 3083 3084 3083 3085 3087 3089 3090 3091 3092 3093 3093 3094 3094 3094 3093 3092 3091 3091 3090 3090 3089 3089
3083 3082 3079 3078 3076 3074 3072 3070 3067 3064 3061 3058 3054 3051 3048 3044 3040 3037 3033 3030 3026 3023 3019 3016 3014 3011 3009 3007 3007 3006 3003 3001 3003 3006 3007 3008 3012 3017 3022 3026 3029 3033 3038 3044 3048 3053 3058 3064 3068 3072 3074 3076 3077 3078 3079 3081 3084 3085 3086 3087 3088 3089 3089 3089 3090 3090 3089 3088 3088 3087 3087 3086 3086 3086
3079 3077 3075 3073 3071 3068 3066 3063 3060 3057 3054 3051 3047 3044 3041 3037 3033 3029 3026 3022 3019 3015 3012 3009 3007 3004 3001 2999 2998 2999 2996 2993 2994 2997 2998 2999 3003 3007 3011 3017 3023 3028 3035 3043 3050 3055 3058 3061 3065 3067 3069 3071 3072 3073 3076 3078 3080 3081 3082 3083 3084 3084 3085 3085 3085 3086 3085 3085 3084 3084 3084 3084 3084 3083
3074 3072 3070 3067 3065 3063 3060 3057 3054 3051 3048 3044 3041 3037 3034 3030 3027 3023 3019 3016 3013 3009 3006 3003 2999 2996 2994 2991 2990 2992 2992 2990 2989 2988 2988 2991 2998 3003 3006 3013 3021 3028 3035 3043 3048 3051 3053 3056 3060 3063 3065 3067 3069 3071 3073 3075 3075 3076 3077 3078 3079 3080 3081 3081 3082 3082 3081 3081 3081 3080 3081 3081 3080 3080
3069 3066 3064 3062 3060 3057 3055 3052 3049 3045 3042 3039 3035 3031 3028 3024 3021 3017 3014 3011 3007 3003 2999 2997 2993 2989 2986 2982 2980 2982 2987 2990 2990 2988 2985 2986 2994 3004 3011 3017 3024 3029 3034 3038 3042 3044 3048 3053 3057 3060 3063 3064 3066 3068 3069 3070 3071 3072 3074 3075 3076 3077 3077 3078 3078 3078 3078 3078 3077 3077 3077 3077 3076 3076
3064 3061 3059 3057 3055 3053 3050 3048 3045 3042 3038 3035 3031 3028 3024 3020 3017 3013 3010 3006 3002 2998 2994 2991 2987 2983 2979 2976 2975 2977 2982 2986 2990 2995 2999 3001 3004 3011 3017 3022 3025 3028 3031 3034 3038 3043 3047 3051 3055 3058 3060 3062 3063 3065 3066 3066 3067 3069 3070 3072 3072 3073 3074 3075 3075 3075 3075 3074 3074 3074 3073 3073 3072 3072
3059 3057 3055 3053 3051 3049 3046 3044 3041 3038 3034 3031 3027 3024 3021 3017 3013 3009 3005 3001 2997 2993 2989 2986 2983 2981 2980 2980 2981 2985 2988 2990 2992 2998 3005 3010 3012 3016 3020 3023 3025 3028 3031 3034 3038 3043 3047 3050 3054 3056 3058 3059 3060 3062 3062 3063 3064 3066 3067 3068 3069 3070 3070 3071 3071 3071 3071 3071 3070 3070 3070 3069 3069 3069